Regional Weather Roundup
Issued by NWS Newport/Morehead, NC

Current Version | Previous Version | Graphics & Text | Print | Product List | Glossary On
Versions: 1 2 3 4 5 6 7 8 9 10 11 12 13 14 15 16 17 18 19 20 21 22 23 24 25 26 27 28 29 30 31 32 33 34 35 36 37 38 39 40 41 42 43 44 45 46 47 48 49 50
000 ASUS42 KMHX 270313 RWRMHX WEATHER ROUNDUP FOR EASTERN NORTH CAROLINA NATIONAL WEATHER SERVICE NEWPORT/MOREHEAD CITY NC 1100 PM EDT MON JUN 26 2017 NOTE: "FAIR" INDICATES FEW OR NO CLOUDS BELOW 12,000 FEET WITH NO SIGNIFICANT WEATHER AND/OR OBSTRUCTIONS TO VISIBILITY NCZ015>017-031-032-045>047-102-103-270400- NORTH COAST CITY SKY/WX TMP DP RH WIND PRES REMARKS EDENTON PTCLDY 75 63 65 CALM 30.04S ELIZABETH CITY CLEAR 73 60 63 S6 30.03F KITTY HAWK CLEAR 71 64 78 CALM 30.03R MANTEO CLEAR 69 61 76 CALM 30.04S $$ NCZ045>047-081-094-103-104-270400- CENTRAL COAST CITY SKY/WX TMP DP RH WIND PRES REMARKS FRISCO CLEAR 69 64 84 CALM 30.04R $$ NCZ095-097-098-100-101-270400- SOUTHERN COAST CITY SKY/WX TMP DP RH WIND PRES REMARKS BEAUFORT CLEAR 72 69 90 CALM 30.04R CEDAR ISLAND NOT AVBL JACKSONVILLE CLEAR 68 68 100 SW3 30.03S PINEY ISLAND CLEAR N/A N/A N/A S5 30.03S WILMINGTON CLEAR 70 67 90 CALM 30.04S $$ NCZ011>013-027>030-043-044-078>080-089-090>093-098-270400- COASTAL PLAIN CITY SKY/WX TMP DP RH WIND PRES REMARKS AHOSKIE N/A 65 64 95 CALM 30.04S CLINTON PTCLDY 69 65 86 CALM 30.05R ELIZABETHTOWN NOT AVBL GOLDSBORO PTCLDY 70 64 79 CALM 30.03R GREENVILLE PTCLDY 70 63 78 CALM 30.06R HAVELOCK CLEAR 70 66 87 SE6 30.05R KENANSVILLE CLEAR 66 63 88 CALM 30.05R KINSTON CLEAR 68 64 86 CALM 30.05R NEW BERN CLEAR 69 67 93 CALM 30.05S RICHLANDS CLEAR 66 65 96 CALM 30.05 ROCKY MOUNT MOCLDY 69 66 90 CALM 30.04R WASHINGTON PTCLDY N/A N/A N/A CALM 30.04S WHITEVILLE PTCLDY 70 64 82 CALM 30.04R $$ AMZ130-135-150-152-154-156-158-170-250-252-270-ANZ085-086-088-633-658-670-270400- MARINE OBSERVATIONS STATION/POSITION TIME TEMP WIND PRES WAVE SWELL AIR SEA DIR/SP/G HT/PER HT/PER (UTC) (F) (DEG/KT/KT) (MB) (FT/S) (FT/S) CHESAPEAKE LIGHT NOT AVBL 64 E VA BEACH 0250 74 75 100/ 4/ 4 1017.3 2/ 8 2/ 8 DUCK 0248 73 70 140/ 6/ 7 1016.6 2 E DUCK NOT AVBL OREGON INLET 0248 90/ 2/ 3 N/A 13E OREGON INLT 0248 74 N/A 2/ 7 2/ 7 HATTERAS CG 0248 75 79 90/ 2/ 2 1017.0 DIAMOND BUOY 0250 77 81 10/ 4/ 6 1016.8 2/ 9 2/ 9 CAPE LOOKOUT 0200 76 CALM / 1 1016.8 BEAUFORT LAB 0248 76 78 CALM / 1 1016.6 30 SE NEW RVR IN 0208 77 81 70/ 2/ 4 1017.1 30 SE NEW RVR IN 0243 81 N/A 2/ 8 27 SE WRIGHTSVLE 0208 77 80 40/ 4/ 6 1016.2 5 SE WRIGHTSVLE 0208 77 79 160/ 2/ 4 1016.9 225 S CAPE HAT 0250 79 80 130/ 10/ 10 1017.3 3/ 6 3/ 6 41 SE CHARLESTON 0250 78 81 50/ 8/ 10 1016.5 2/ 5 2/ 5 $$

USA.gov is the U.S. government's official web portal to all federal, state and local government web resources and services.